| time (UTC) | temp F | wind direction | speed MPH | gust MPH | rain 1hr in | rain 24hr in | rain mn in | humidity % | barometer mb |
| 20260504081539 | 58 | 330 | 18.0 | 29.0 | 0.00 | 0.00 | 0.00 | 47 | 1018.0 |
| 20260504044536 | 51 | 320 | 17.0 | 28.0 | 0.00 | 0.00 | 0.00 | 64 | 1016.0 |
| 20260504043036 | 51 | 320 | 12.0 | 24.0 | 0.00 | 0.00 | 0.00 | 64 | 1016.0 |
| 20260504041536 | 51 | 320 | 12.0 | 24.0 | 0.00 | 0.00 | 0.00 | 65 | 1017.0 |
| 20260504040035 | 51 | 330 | 19.0 | 0.0 | 0.00 | 0.00 | 0.00 | 65 | 1016.0 |
| 20260504034535 | 51 | 330 | 19.0 | 0.0 | 0.00 | 0.00 | 0.00 | 64 | 1016.0 |
| 20260504033035 | 50 | 330 | 17.0 | 32.0 | 0.00 | 0.00 | 0.00 | 64 | 1016.0 |
| 20260504031535 | 51 | 330 | 17.0 | 32.0 | 0.00 | 0.00 | 0.00 | 64 | 1016.0 |
| 20260504030034 | 51 | 345 | 7.0 | 14.0 | 0.00 | 0.00 | 0.00 | 63 | 1016.0 |
| 20260504024534 | 51 | 320 | 19.0 | 32.0 | 0.00 | 0.00 | 0.00 | 63 | 1016.0 |
| 20260504023034 | 51 | 320 | 19.0 | 32.0 | 0.00 | 0.00 | 0.00 | 62 | 1016.0 |
| 20260504021533 | 51 | 320 | 19.0 | 32.0 | 0.00 | 0.00 | 0.00 | 62 | 1016.0 |
| 20260504020033 | 51 | 350 | 7.0 | 17.0 | 0.00 | 0.00 | 0.00 | 62 | 1016.0 |
| 20260504014533 | 50 | 330 | 21.0 | 34.0 | 0.00 | 0.00 | 0.00 | 61 | 1016.0 |
| 20260504013033 | 51 | 330 | 21.0 | 34.0 | 0.00 | 0.00 | 0.00 | 62 | 1016.0 |
| 20260504011533 | 51 | 330 | 21.0 | 34.0 | 0.00 | 0.00 | 0.00 | 60 | 1016.0 |
| 20260504010032 | 51 | 346 | 9.0 | 21.0 | 0.00 | 0.00 | 0.00 | 59 | 1016.0 |
| 20260504004532 | 51 | 310 | 17.0 | 0.0 | 0.00 | 0.00 | 0.00 | 60 | 1016.0 |
| 20260504003032 | 51 | 310 | 17.0 | 0.0 | 0.00 | 0.00 | 0.00 | 61 | 1016.0 |
| 20260504001532 | 51 | 310 | 17.0 | 0.0 | 0.00 | 0.00 | 0.00 | 59 | 1016.0 |
| 20260504000031 | 51 | 355 | 11.0 | 25.0 | 0.00 | 0.00 | 0.00 | 58 | 1015.0 |
| 20260503234531 | 51 | 330 | 25.0 | 0.0 | 0.00 | 0.00 | 0.00 | 57 | 1015.0 |
| 20260503233031 | 51 | 330 | 25.0 | 0.0 | 0.00 | 0.00 | 0.00 | 57 | 1015.0 |
| 20260503231530 | 51 | 330 | 25.0 | 0.0 | 0.00 | 0.00 | 0.00 | 57 | 1016.0 |
| 20260503230030 | 51 | 334 | 8.0 | 18.0 | 0.00 | 0.00 | 0.00 | 57 | 1015.0 |
| 20260503224530 | 52 | 340 | 23.0 | 39.0 | 0.00 | 0.00 | 0.00 | 57 | 1015.0 |
| 20260503223030 | 52 | 340 | 23.0 | 39.0 | 0.00 | 0.00 | 0.00 | 57 | 1015.0 |
| 20260503221529 | 52 | 340 | 23.0 | 39.0 | 0.00 | 0.00 | 0.00 | 57 | 1015.0 |
| 20260503220029 | 52 | 0 | 11.0 | 25.0 | 0.00 | 0.00 | 0.00 | 58 | 1015.0 |
| 20260503214529 | 52 | 330 | 23.0 | 34.0 | 0.00 | 0.00 | 0.00 | 59 | 1015.0 |
| 20260503213029 | 52 | 330 | 23.0 | 34.0 | 0.00 | 0.00 | 0.00 | 60 | 1015.0 |
| 20260503211528 | 53 | 330 | 23.0 | 34.0 | 0.00 | 0.00 | 0.00 | 58 | 1015.0 |
| 20260503210028 | 53 | 340 | 23.0 | 34.0 | 0.00 | 0.00 | 0.00 | 60 | 1015.0 |
| 20260503204528 | 53 | 340 | 23.0 | 34.0 | 0.00 | 0.00 | 0.00 | 59 | 1014.0 |
| 20260503203028 | 53 | 350 | 19.0 | 31.0 | 0.00 | 0.00 | 0.00 | 61 | 1015.0 |
| 20260503201527 | 53 | 350 | 19.0 | 31.0 | 0.00 | 0.00 | 0.00 | 63 | 1015.0 |
| 20260503200027 | 53 | 360 | 17.0 | 28.0 | 0.00 | 0.00 | 0.00 | 64 | 1014.0 |
| 20260503194527 | 54 | 360 | 17.0 | 28.0 | 0.00 | 0.00 | 0.00 | 65 | 1014.0 |
| 20260503193027 | 54 | 360 | 17.0 | 28.0 | 0.00 | 0.00 | 0.00 | 65 | 1014.0 |
| 20260503191526 | 54 | 360 | 17.0 | 28.0 | 0.00 | 0.00 | 0.00 | 66 | 1014.0 |
| 20260503190026 | 54 | 360 | 17.0 | 0.0 | 0.00 | 0.00 | 0.00 | 65 | 1014.0 |
| 20260503184526 | 54 | 360 | 17.0 | 0.0 | 0.00 | 0.00 | 0.00 | 65 | 1014.0 |
| 20260503183026 | 54 | 360 | 12.0 | 24.0 | 0.00 | 0.00 | 0.00 | 66 | 1014.0 |
| 20260503181525 | 54 | 360 | 12.0 | 24.0 | 0.00 | 0.00 | 0.00 | 65 | 1014.0 |
| 20260503180025 | 55 | 360 | 12.0 | 24.0 | 0.00 | 0.00 | 0.00 | 65 | 1013.0 |
| 20260503174525 | 54 | 360 | 12.0 | 24.0 | 0.00 | 0.00 | 0.00 | 64 | 1013.0 |
| 20260503173025 | 54 | 360 | 12.0 | 24.0 | 0.00 | 0.00 | 0.00 | 64 | 1013.0 |
| 20260503171524 | 54 | 360 | 12.0 | 24.0 | 0.00 | 0.00 | 0.00 | 65 | 1013.0 |